Theta_e
339 342 344 347 348 350 355 359 357 364 359 360 357 357 354 357 357 361 367 371 368 368 371 362 368 368 362 363 369 363 363 359 358 352 345 349 348 350 349 350 348 347 344
338 343 344 345 347 348 353 357 358 364 359 357 358 359 359 358 357 361 368 368 367 368 368 368 365 366 366 366 368 367 360 356 355 348 344 336 341 345 347 349 348 344 344
338 342 344 345 346 347 352 355 358 361 359 360 360 363 368 366 362 361 364 366 368 371 372 373 373 373 372 360 366 366 361 354 356 351 344 336 331 340 347 349 348 344 345
340 343 346 348 346 347 352 356 359 360 361 362 359 360 353 353 358 366 363 366 367 368 370 373 372 373 368 368 367 365 364 362 351 350 351 347 346 338 335 346 346 350 344
339 342 345 349 349 348 350 354 358 362 362 361 363 358 359 354 358 360 364 369 372 370 368 371 373 370 368 367 366 370 365 362 355 350 343 343 346 347 341 334 339 346 349
338 342 346 351 350 349 348 352 358 360 364 364 362 365 357 356 358 358 360 364 362 366 368 368 370 369 368 368 364 371 366 363 360 354 348 344 343 342 342 339 340 339 342
338 340 344 346 349 349 348 350 356 358 361 365 363 362 366 363 360 366 364 360 358 359 363 367 367 366 370 368 371 370 366 363 358 357 354 350 348 350 349 342 340 337 342
341 339 343 346 349 350 351 350 355 358 361 360 365 364 364 364 367 364 360 361 362 360 366 369 369 369 373 371 369 369 367 362 359 358 357 352 350 349 350 346 339 334 334
340 341 341 345 348 349 351 352 356 359 361 363 361 366 365 364 360 364 366 363 367 363 368 374 370 372 373 371 371 366 363 360 356 353 353 354 352 350 349 346 342 336 328
339 343 342 343 346 349 350 353 355 361 363 364 365 364 365 368 365 367 364 366 365 365 364 367 374 373 373 372 369 362 359 355 356 353 353 353 351 350 349 346 343 341 336
337 342 344 344 344 346 347 349 351 359 362 364 365 365 366 368 370 367 365 370 368 370 377 369 368 372 369 372 369 363 354 338 341 352 353 352 351 349 346 346 345 340 337
333 340 344 345 342 343 344 347 349 351 361 364 366 366 369 369 368 368 369 369 367 371 371 370 372 369 373 372 368 360 340 340 339 341 347 349 351 347 347 345 342 339 338
337 339 343 345 344 344 346 347 349 350 358 363 363 365 367 368 368 370 372 371 372 371 371 371 370 372 372 369 368 359 344 341 340 343 348 349 347 346 345 344 338 332 328
346 343 345 349 349 349 349 350 349 350 355 361 363 362 367 368 370 372 373 374 374 373 373 373 374 372 371 370 364 350 343 340 342 346 352 342 342 338 337 328 328 326 320
343 347 351 353 354 354 355 353 353 354 357 360 360 363 366 370 372 372 374 376 376 374 373 373 372 372 369 366 363 349 343 344 345 351 338 325 323 323 322 318 321 318 315
344 348 355 356 356 358 359 359 359 359 362 360 361 366 369 370 372 373 374 374 374 374 374 372 372 371 365 339 339 343 345 347 347 335 328 323 323 321 321 320 320 320 316
342 349 354 359 362 363 365 361 363 370 366 366 365 368 371 371 372 374 374 374 373 375 374 373 371 369 355 333 334 341 356 352 347 340 337 331 326 330 323 320 320 319 319
343 348 350 355 364 363 367 369 366 369 370 369 369 371 372 372 374 374 373 375 375 375 375 371 364 367 342 328 331 338 354 350 343 337 330 323 320 319 324 325 324 323 321
345 347 350 355 361 358 366 365 367 368 366 367 370 371 372 372 373 372 373 375 375 374 370 369 361 349 339 325 326 344 347 336 329 330 325 320 318 315 316 324 322 322 321
347 347 346 345 355 366 366 365 362 365 365 367 369 374 375 373 372 372 373 374 373 367 358 359 355 340 346 320 323 337 339 330 323 317 313 314 313 311 311 321 320 318 320
346 346 350 349 358 370 367 371 365 362 369 370 372 374 374 374 374 373 374 370 364 353 352 350 353 352 347 329 319 325 342 333 326 318 313 311 310 309 309 309 318 316 310
350 350 351 358 366 372 368 373 368 371 373 372 371 372 373 369 372 371 367 360 353 349 350 348 349 350 341 323 316 318 326 331 328 319 313 310 306 305 306 312 309 309 310
357 358 354 361 365 373 370 368 374 375 371 371 369 369 369 371 370 363 355 350 348 347 346 345 342 341 332 322 312 313 317 322 322 318 311 306 303 304 306 309 312 312 319
352 357 355 357 363 368 370 371 376 375 369 367 367 369 367 362 358 355 351 347 346 346 345 343 340 339 333 328 323 320 316 312 311 311 311 312 314 312 314 313 318 320 319
349 357 361 361 367 366 368 373 371 369 367 366 368 364 356 354 347 335 343 346 348 343 347 346 344 340 333 329 321 322 323 319 313 316 317 317 316 318 322 320 319 319 321
346 359 364 360 365 364 370 369 370 370 368 366 360 354 348 339 336 333 321 306 308 306 311 323 335 337 316 305 303 303 302 304 305 317 318 322 322 319 320 319 319 320 319
Wind_Speed
20 19 17 17 17 16 14 12 12 11 10 7 7 6 6 7 6 5 11 6 2 6 4 4 3 4 5 5 1 2 3 3 3 2 4 2 5 3 3 4 2 3 3
20 19 18 18 17 17 16 14 12 11 10 8 8 6 6 7 7 5 5 6 6 4 5 5 5 5 4 4 3 2 3 3 2 1 3 3 3 6 6 2 2 1 2
21 19 20 19 19 18 17 16 15 13 12 11 6 6 5 4 4 4 6 6 7 5 5 5 5 4 3 4 3 3 6 2 2 3 1 4 3 4 2 2 2 4 1
21 21 21 21 20 19 18 16 15 14 13 12 9 9 7 6 5 3 4 5 10 8 6 6 5 5 4 4 2 4 4 2 2 2 2 2 5 3 4 2 5 1 2
22 22 23 22 20 19 19 18 17 15 14 14 12 10 8 7 6 5 7 7 6 7 8 6 6 6 5 5 5 5 3 1 1 2 1 3 4 4 3 5 4 2 4
21 21 22 21 20 19 19 19 19 16 15 15 15 11 12 11 7 8 6 5 5 7 9 9 7 7 6 5 5 5 4 4 3 1 3 4 4 5 3 5 8 5 6
21 21 21 21 21 21 21 20 21 19 18 15 16 15 12 12 12 8 6 6 5 6 9 12 9 7 5 6 4 4 4 4 3 3 4 5 6 4 3 6 7 4 5
21 21 21 21 22 22 20 20 21 20 19 19 16 15 14 9 9 10 8 6 5 6 6 10 9 8 6 6 5 4 2 0 4 6 4 5 7 7 5 2 3 5 3
20 22 22 21 21 21 21 20 18 21 20 19 16 14 14 14 13 11 8 8 8 8 8 9 10 10 8 7 6 5 4 4 5 7 7 4 7 6 6 6 4 2 4
20 21 21 20 20 20 19 19 18 20 20 19 16 14 14 15 15 10 12 12 11 11 10 7 4 6 7 7 7 5 6 6 2 3 5 5 7 6 4 5 5 3 1
20 20 20 20 19 19 18 18 18 17 19 18 16 16 15 15 14 14 15 11 10 8 7 10 7 6 7 7 7 7 4 9 8 5 4 7 8 4 5 4 5 3 2
17 20 21 21 20 19 19 19 18 17 18 17 15 16 15 15 16 15 14 13 13 11 11 10 8 8 5 7 9 8 9 5 9 3 6 7 5 4 4 4 3 6 5
5 15 20 20 20 18 17 16 16 16 16 17 16 14 16 15 15 14 14 13 12 13 13 11 8 6 6 8 7 6 10 7 5 7 5 5 5 2 3 4 7 6 5
7 10 17 17 17 15 15 15 17 17 15 16 17 16 15 15 15 13 13 12 11 11 10 8 7 8 8 8 8 7 8 7 4 8 4 9 7 7 6 8 7 6 5
5 14 13 13 14 13 13 14 15 13 15 15 16 16 15 14 14 13 12 10 10 10 9 9 8 7 7 5 3 9 8 7 7 6 10 9 12 16 12 5 5 5 5
9 12 13 13 13 12 12 12 12 14 13 14 15 13 13 13 12 12 11 11 10 10 9 8 7 5 4 11 17 10 8 7 8 9 9 7 10 10 12 9 9 7 6
6 9 10 10 9 9 9 11 11 8 11 12 13 13 12 12 11 10 9 9 9 8 6 5 4 3 7 16 14 10 6 7 10 8 7 7 8 4 5 6 9 9 8
10 11 8 8 9 10 9 7 9 9 8 9 11 11 12 11 9 9 8 7 6 6 4 4 4 7 6 13 13 9 10 9 8 10 12 10 8 7 5 6 6 6 5
11 8 4 11 9 11 10 11 9 10 11 11 11 11 11 10 9 9 8 6 5 4 6 4 9 10 9 11 11 11 10 12 12 11 11 9 6 7 11 6 6 6 5
8 7 8 8 6 6 11 13 14 12 14 13 11 9 10 10 10 9 8 7 6 6 8 9 9 11 11 6 9 8 10 11 9 9 10 10 6 9 11 7 5 5 5
4 5 6 6 5 5 5 8 13 14 11 11 11 10 10 10 10 9 7 8 8 12 9 9 8 11 10 7 5 6 9 9 8 7 6 4 7 9 9 7 5 4 5
9 7 7 5 4 3 6 6 9 9 10 10 12 12 12 10 10 12 10 11 12 11 10 10 9 8 8 7 9 14 12 9 8 9 7 4 7 7 6 2 5 8 6
13 10 7 5 5 6 6 7 6 9 10 11 13 13 13 11 12 12 12 10 11 10 10 9 8 8 6 6 14 15 15 14 11 8 10 9 6 4 3 2 7 10 5
14 12 11 8 6 6 6 7 8 10 14 15 14 13 13 13 11 9 10 9 10 10 9 10 9 8 8 6 7 9 11 16 12 12 7 6 3 5 3 2 3 1 3
14 12 12 8 5 8 7 9 12 15 15 15 14 13 11 12 11 8 6 9 9 7 10 9 10 10 9 8 9 9 8 8 9 8 4 3 3 4 3 3 4 4 4
15 13 16 11 9 9 9 11 13 15 17 15 13 11 10 9 9 8 7 17 9 5 3 14 10 8 14 15 13 12 15 16 14 5 5 5 3 4 3 4 4 4 5
Wind_Direction
186 177 183 176 164 163 167 177 174 160 164 179 196 214 222 207 237 258 151 157 220 174 175 267 260 196 227 248 113 23 287 301 46 294 304 296 205 214 330 233 31 130 184
187 181 183 177 175 170 172 175 177 170 175 191 189 215 218 205 214 223 162 166 175 229 184 218 295 301 322 296 185 198 268 310 117 58 273 321 284 23 325 292 219 192 132
189 183 179 185 178 175 175 178 182 179 181 188 202 217 249 253 266 211 163 185 196 209 214 225 240 290 299 299 201 215 246 253 155 138 317 340 341 339 24 7 359 239 173
188 181 180 185 184 179 177 177 185 188 185 205 193 211 212 235 227 244 214 198 192 198 206 233 241 253 260 294 244 243 256 328 342 25 206 255 232 276 323 350 296 63 215
186 185 184 182 186 181 178 181 184 190 189 198 223 197 208 221 250 229 241 203 190 195 206 214 211 230 241 256 259 261 241 14 88 144 290 280 288 289 324 309 319 296 260
186 190 183 180 186 189 180 182 181 192 193 192 210 228 197 229 220 231 243 182 206 195 202 212 200 212 215 237 260 259 231 216 204 169 220 265 298 299 309 296 314 312 303
182 185 184 181 182 192 187 182 183 189 191 200 202 217 232 207 238 254 258 236 256 222 208 201 202 208 192 223 261 234 258 345 317 271 302 301 293 317 304 315 311 319 313
179 182 184 182 182 188 192 190 181 186 190 197 205 207 219 228 226 229 237 259 243 268 283 180 190 202 194 195 227 222 204 228 277 281 264 289 293 296 337 314 326 332 332
184 178 183 182 182 187 192 192 184 183 190 193 203 208 207 219 228 236 234 242 258 266 275 188 194 192 188 189 202 198 143 193 244 281 288 275 282 310 312 310 293 247 340
185 177 179 182 182 185 189 191 191 182 188 195 196 206 210 213 224 229 229 235 225 233 251 271 233 193 183 189 194 181 170 216 144 270 272 275 290 302 309 315 297 317 278
181 176 176 177 178 180 188 189 192 182 186 192 197 202 207 215 220 224 235 241 227 240 236 225 224 210 208 206 193 187 123 42 338 295 272 286 286 310 325 307 288 320 331
189 176 175 173 179 185 184 184 191 193 185 190 194 200 207 210 217 224 229 229 233 235 234 241 220 222 224 210 210 177 119 176 290 294 291 299 312 19 323 293 338 44 45
232 179 167 173 177 185 180 181 184 190 186 185 193 201 204 210 215 220 223 227 227 230 236 237 237 230 216 236 234 189 150 172 220 270 269 290 10 1 276 15 49 31 2
226 175 158 165 170 174 176 179 183 187 183 180 191 202 207 208 213 217 223 225 228 236 238 239 237 214 218 227 231 118 152 181 216 257 25 50 41 50 41 50 44 27 12
177 136 142 152 160 167 169 177 179 185 180 183 192 201 206 213 213 215 221 224 219 229 234 235 232 225 208 215 191 127 152 154 228 82 84 73 87 75 60 67 57 47 42
136 131 133 146 158 165 171 172 182 182 180 184 193 194 198 206 212 209 211 214 220 223 226 224 232 219 175 111 127 139 171 202 122 110 113 131 94 87 93 98 92 83 72
148 137 141 154 158 165 170 179 180 176 183 181 189 189 193 202 202 203 201 208 210 216 215 215 196 125 107 131 128 139 151 121 124 131 161 107 71 105 134 138 125 94 91
133 151 165 163 160 170 173 178 181 185 189 187 187 188 189 191 188 183 193 196 198 197 186 149 156 107 104 124 126 121 112 111 90 87 84 86 68 35 11 61 45 49 90
48 24 88 167 175 183 175 177 195 188 195 194 191 184 183 179 178 180 182 179 168 154 130 142 102 110 133 129 122 116 103 91 71 73 85 85 78 37 16 56 37 50 26
29 12 347 335 149 165 177 182 192 193 195 193 187 177 169 170 170 167 167 163 132 112 92 107 115 131 133 134 124 126 113 104 97 83 73 66 84 60 41 45 38 42 3
345 309 299 278 295 177 174 201 189 204 184 181 170 165 161 161 154 152 145 131 118 102 106 107 119 117 116 90 120 133 130 122 126 128 109 83 71 61 45 26 34 34 317
341 301 266 257 238 214 178 195 189 182 161 164 159 153 151 151 147 134 124 111 109 114 120 120 118 110 87 78 73 95 105 131 128 111 108 115 82 68 34 28 348 308 280
324 316 297 296 239 167 170 184 182 154 156 143 140 144 149 140 137 130 123 116 124 131 135 128 120 121 103 88 77 76 74 83 96 106 113 114 97 38 308 323 328 322 10
324 309 298 285 235 148 174 184 160 141 135 138 142 148 132 127 121 124 123 132 137 146 144 136 145 142 131 121 106 102 93 89 98 107 121 150 184 218 299 293 264 210 6
307 292 292 277 187 153 189 158 145 144 144 146 146 133 128 126 120 86 119 140 150 154 145 154 155 155 150 148 137 131 125 123 128 124 134 171 199 202 166 102 83 20 16
307 309 298 267 162 165 156 160 160 157 152 149 137 141 128 125 128 122 95 42 33 58 189 149 144 134 125 124 121 118 119 129 151 154 186 194 147 95 108 126 107 74 27